TimeCST,TemperatureF,Dew PointF,Humidity,Sea Level PressureIn,VisibilityMPH,Wind Direction,Wind SpeedMPH,Gust SpeedMPH,PrecipitationIn,Events,Conditions,WindDirDegrees,DateUTC
12:35 AM,26.6,15.8,64,30.15,10.0,Calm,Calm,-,N/A,,Clear,0,2013-01-16 06:35:00
12:55 AM,24.8,12.2,59,30.16,10.0,WNW,4.6,-,N/A,,Clear,290,2013-01-16 06:55:00
1:55 AM,19.4,10.4,68,30.15,10.0,WNW,4.6,-,N/A,,Clear,290,2013-01-16 07:55:00
2:15 AM,19.4,12.2,74,30.15,10.0,WNW,3.5,-,N/A,,Clear,290,2013-01-16 08:15:00
2:36 AM,21.2,14.0,74,30.14,10.0,Calm,Calm,-,N/A,,Clear,0,2013-01-16 08:36:00
3:55 AM,19.4,14.0,80,30.15,10.0,WNW,3.5,-,N/A,,Clear,300,2013-01-16 09:55:00
4:35 AM,19.4,12.2,74,30.15,10.0,West,4.6,-,N/A,,Clear,270,2013-01-16 10:35:00
5:15 AM,17.6,12.2,79,30.16,10.0,WSW,4.6,-,N/A,,Clear,240,2013-01-16 11:15:00
5:35 AM,17.6,10.4,73,30.16,8.0,Calm,Calm,-,N/A,,Clear,0,2013-01-16 11:35:00
5:55 AM,17.6,12.2,79,30.15,7.0,Calm,Calm,-,N/A,,Clear,0,2013-01-16 11:55:00
6:16 AM,17.6,12.2,79,30.15,7.0,Calm,Calm,-,N/A,,Clear,0,2013-01-16 12:16:00
6:35 AM,17.6,12.2,79,30.15,7.0,Calm,Calm,-,N/A,,Clear,0,2013-01-16 12:35:00
6:55 AM,17.6,12.2,79,30.15,7.0,West,3.5,-,N/A,,Clear,260,2013-01-16 12:55:00
7:55 AM,15.8,10.4,79,30.16,5.0,West,4.6,-,N/A,,Clear,260,2013-01-16 13:55:00
8:15 AM,17.6,12.2,79,30.17,5.0,WSW,3.5,-,N/A,,Clear,240,2013-01-16 14:15:00
8:55 AM,19.4,14.0,80,30.20,8.0,Calm,Calm,-,N/A,,Clear,0,2013-01-16 14:55:00
9:15 AM,23.0,15.8,74,30.20,8.0,Calm,Calm,-,N/A,,Clear,0,2013-01-16 15:15:00
9:56 AM,28.4,15.8,59,30.18,10.0,Calm,Calm,-,N/A,,Clear,0,2013-01-16 15:56:00
10:15 AM,28.4,15.8,59,30.18,10.0,Calm,Calm,-,N/A,,Clear,0,2013-01-16 16:15:00
10:55 AM,30.2,17.6,60,30.17,10.0,SW,3.5,-,N/A,,Clear,220,2013-01-16 16:55:00
11:15 AM,30.2,17.6,60,30.16,10.0,Calm,Calm,-,N/A,,Clear,0,2013-01-16 17:15:00
11:55 AM,33.8,17.6,52,30.13,10.0,Calm,Calm,-,0.03,,Clear,0,2013-01-16 17:55:00
12:15 PM,35.6,17.6,48,30.12,10.0,Calm,Calm,-,0.01,,Clear,0,2013-01-16 18:15:00
12:35 PM,37.4,17.6,45,30.11,10.0,Calm,Calm,-,0.02,,Clear,0,2013-01-16 18:35:00
12:55 PM,37.4,17.6,45,30.11,10.0,Calm,Calm,-,0.02,,Clear,0,2013-01-16 18:55:00
12:56 PM,37.4,17.6,45,30.10,10.0,WSW,3.5,-,N/A,,Clear,250,2013-01-16 18:56:00
1:15 PM,39.2,17.6,42,30.09,10.0,SSE,3.5,-,N/A,,Clear,150,2013-01-16 19:15:00
1:35 PM,41.0,19.4,42,30.09,10.0,SW,3.5,-,N/A,,Clear,220,2013-01-16 19:35:00
2:35 PM,42.8,19.4,39,30.08,10.0,Calm,Calm,-,N/A,,Clear,0,2013-01-16 20:35:00
2:55 PM,44.6,19.4,37,30.08,10.0,NNE,3.5,-,N/A,,Clear,20,2013-01-16 20:55:00
3:35 PM,44.6,19.4,37,30.09,10.0,Calm,Calm,-,N/A,,Clear,0,2013-01-16 21:35:00
3:55 PM,44.6,19.4,37,30.09,10.0,North,4.6,-,N/A,,Clear,10,2013-01-16 21:55:00
4:15 PM,44.6,19.4,37,30.09,10.0,Calm,Calm,-,N/A,,Clear,0,2013-01-16 22:15:00
4:35 PM,44.6,19.4,37,30.10,10.0,Calm,Calm,-,N/A,,Clear,0,2013-01-16 22:35:00
5:15 PM,42.8,19.4,39,30.11,10.0,Calm,Calm,-,N/A,,Clear,0,2013-01-16 23:15:00
5:55 PM,41.0,15.8,36,30.11,4.0,NNW,3.5,-,N/A,,Clear,330,2013-01-16 23:55:00
6:15 PM,39.2,15.8,39,30.11,10.0,NW,4.6,-,N/A,,Clear,320,2013-01-17 00:15:00
6:56 PM,32.0,15.8,51,30.12,10.0,NW,4.6,-,N/A,,Clear,310,2013-01-17 00:56:00
7:15 PM,33.8,15.8,48,30.13,10.0,Calm,Calm,-,N/A,,Clear,0,2013-01-17 01:15:00
7:35 PM,30.2,17.6,60,30.12,10.0,WNW,4.6,-,N/A,,Clear,300,2013-01-17 01:35:00
7:55 PM,32.0,17.6,55,30.13,10.0,WNW,3.5,-,N/A,,Clear,300,2013-01-17 01:55:00
8:15 PM,33.8,17.6,52,30.13,10.0,Calm,Calm,-,N/A,,Clear,0,2013-01-17 02:15:00
8:35 PM,30.2,17.6,60,30.13,10.0,Calm,Calm,-,N/A,,Clear,0,2013-01-17 02:35:00
9:16 PM,30.2,17.6,60,30.15,10.0,Calm,Calm,-,N/A,,Clear,0,2013-01-17 03:16:00
9:35 PM,30.2,17.6,60,30.14,10.0,Calm,Calm,-,N/A,,Clear,0,2013-01-17 03:35:00
9:55 PM,26.6,17.6,69,30.15,10.0,SSE,3.5,-,N/A,,Clear,150,2013-01-17 03:55:00
10:15 PM,28.4,17.6,64,30.14,10.0,Calm,Calm,-,N/A,,Clear,0,2013-01-17 04:15:00
10:36 PM,30.2,17.6,60,30.14,10.0,Calm,Calm,-,N/A,,Clear,0,2013-01-17 04:36:00
10:55 PM,26.6,17.6,69,30.15,10.0,Calm,Calm,-,N/A,,Clear,0,2013-01-17 04:55:00
11:55 PM,28.4,19.4,69,30.16,10.0,Calm,Calm,-,N/A,,Overcast,0,2013-01-17 05:55:00